Location: Napa Soda Springs
(38.3907°N, 122.2794°W)
Time: 21:22:34
(UTC+00:00)

DELTA 2 R/B (1) - Pass Details

Date: 29 October 2020
Orbit: 790 x 803 km, 39.6° (Epoch: 24 November)

Event Time Altitude Azimuth Distance (km) Brightness Sun altitude
Exits shadow 12:19:28 36° 183° (S) 1,241 4.5 -26.7°
Drops below altitude 10° 12:23:36 10° 141° (SE) 2,364 6.4 -25.9°
Sets 12:26:13 0° 134° (SE) 3,293 7.4 -25.3°
